Simultaneous Nadir Overpasses (SNOs) Predictions

Prediction of SNOs between GOES-16 and AQUA Satellite Orbit:

Table of predicted SNOs for the next 14.0 days since TLE Epoch: 1/2/2021
Index Date Time (GOES-16) GOES-16 Lat,Lon AQUA Lat,Lon Distance(km) Time Diff (sec)
1 01/03/2021 18:35:15 0.00, -75.19 0.12, -74.64 62.24 80
2 01/05/2021 18:23:04 0.02, -75.18 0.78, -71.69 397.59 80
3 01/06/2021 06:44:19 -0.02, -75.18 0.32, -76.84 188.61 80
4 01/08/2021 06:29:27 -0.01, -75.18 -0.28, -73.88 147.62 80
5 01/08/2021 18:50:52 -0.00, -75.18 -0.80, -79.08 442.74 80
6 01/10/2021 06:17:15 0.02, -75.18 -0.88, -70.92 484.79 80
7 01/10/2021 18:38:40 -0.02, -75.18 -0.19, -76.11 105.78 80
8 01/12/2021 18:29:08 -0.02, -75.18 0.42, -73.15 231.24 80
9 01/13/2021 06:50:23 0.02, -75.19 0.68, -78.31 354.12 80
10 01/15/2021 06:38:11 0.01, -75.21 0.07, -75.34 16.40 80
